| time (UTC) | temp C | wind direction | speed KPH | gust KPH | rain 1hr cm | rain 24hr cm | rain mn cm | humidity % | barometer mb |
| 20260902191507 | 36 | 153 | 8.0 | 16.1 | 0.00 | 0.00 | 0.00 | 51 | 1011.9 |
| 20260902184600 | 35 | 175 | 4.8 | 20.9 | 0.00 | 0.00 | 0.00 | 56 | 1012.4 |
| 20260902183059 | 35 | 109 | 8.0 | 19.3 | 0.00 | 0.00 | 0.00 | 54 | 1012.6 |
| 20260902181558 | 35 | 154 | 6.4 | 20.9 | 0.00 | 0.00 | 0.00 | 55 | 1012.8 |
| 20260902180058 | 35 | 123 | 6.4 | 17.7 | 0.00 | 0.00 | 0.00 | 59 | 1012.8 |
| 20260902174556 | 35 | 108 | 8.0 | 20.9 | 0.00 | 0.00 | 0.00 | 58 | 1012.7 |
| 20260902173056 | 34 | 91 | 9.7 | 17.7 | 0.00 | 0.00 | 0.00 | 58 | 1012.5 |
| 20260902171557 | 35 | 94 | 9.7 | 19.3 | 0.00 | 0.00 | 0.00 | 55 | 1012.3 |
| 20260902170053 | 35 | 107 | 6.4 | 16.1 | 0.00 | 0.00 | 0.00 | 56 | 1012.5 |
| 20260902164553 | 34 | 355 | 3.2 | 9.7 | 0.00 | 0.00 | 0.00 | 61 | 1012.4 |
| 20260902163046 | 33 | 349 | 3.2 | 9.7 | 0.00 | 0.00 | 0.00 | 63 | 1012.7 |
| 20260902161542 | 32 | 346 | 3.2 | 8.0 | 0.00 | 0.00 | 0.00 | 65 | 1012.7 |
| 20260902160036 | 31 | 346 | 1.6 | 6.4 | 0.00 | 0.00 | 0.00 | 68 | 1012.8 |
| 20260902154535 | 31 | 346 | 1.6 | 8.0 | 0.00 | 0.00 | 0.00 | 66 | 1012.9 |
| 20260902153031 | 31 | 346 | 3.2 | 6.4 | 0.00 | 0.00 | 0.00 | 67 | 1012.9 |
| 20260902151529 | 30 | 345 | 4.8 | 9.7 | 0.00 | 0.00 | 0.00 | 70 | 1012.8 |
| 20260902150024 | 28 | 338 | 3.2 | 8.0 | 0.00 | 0.00 | 0.00 | 73 | 1012.7 |
| 20260902144523 | 27 | 330 | 3.2 | 8.0 | 0.00 | 0.00 | 0.00 | 75 | 1012.8 |
| 20260902143022 | 27 | 327 | 1.6 | 9.7 | 0.00 | 0.00 | 0.00 | 78 | 1012.8 |
| 20260902141524 | 26 | 319 | 3.2 | 8.0 | 0.00 | 0.00 | 0.00 | 78 | 1012.7 |
| 20260902140021 | 26 | 317 | 1.6 | 9.7 | 0.00 | 0.00 | 0.00 | 79 | 1012.6 |
| 20260902134531 | 25 | 339 | 3.2 | 9.7 | 0.00 | 0.03 | 0.00 | 80 | 1012.5 |
| 20260902133020 | 25 | 342 | 3.2 | 12.9 | 0.00 | 0.03 | 0.00 | 81 | 1012.4 |
| 20260902131518 | 25 | 337 | 3.2 | 12.9 | 0.00 | 0.03 | 0.00 | 80 | 1012.2 |
| 20260902130017 | 25 | 327 | 3.2 | 9.7 | 0.00 | 0.03 | 0.00 | 79 | 1011.9 |
| 20260902124517 | 26 | 327 | 3.2 | 8.0 | 0.00 | 0.03 | 0.00 | 79 | 1011.7 |
| 20260902123020 | 26 | 327 | 3.2 | 9.7 | 0.00 | 0.03 | 0.00 | 79 | 1011.8 |
| 20260902121514 | 26 | 327 | 1.6 | 6.4 | 0.00 | 0.03 | 0.00 | 80 | 1011.9 |
| 20260902120012 | 26 | 325 | 3.2 | 8.0 | 0.00 | 0.03 | 0.00 | 81 | 1011.7 |
| 20260902114514 | 26 | 325 | 1.6 | 9.7 | 0.00 | 0.03 | 0.00 | 82 | 1011.7 |
| 20260902113009 | 26 | 324 | 1.6 | 6.4 | 0.00 | 0.03 | 0.00 | 82 | 1011.8 |
| 20260902111506 | 26 | 324 | 3.2 | 6.4 | 0.00 | 0.03 | 0.00 | 82 | 1012.0 |
| 20260902110008 | 26 | 324 | 1.6 | 8.0 | 0.00 | 0.03 | 0.00 | 81 | 1011.9 |
| 20260902104622 | 27 | 322 | 1.6 | 8.0 | 0.00 | 0.03 | 0.00 | 81 | 1011.9 |
| 20260902103059 | 27 | 321 | 1.6 | 6.4 | 0.00 | 0.03 | 0.00 | 80 | 1012.0 |
| 20260902101557 | 27 | 321 | 1.6 | 6.4 | 0.00 | 0.03 | 0.00 | 80 | 1012.1 |
| 20260902100110 | 27 | 321 | 1.6 | 6.4 | 0.00 | 0.03 | 0.00 | 80 | 1012.3 |
| 20260902094551 | 27 | 321 | 3.2 | 8.0 | 0.00 | 0.03 | 0.00 | 82 | 1012.4 |
| 20260902093055 | 27 | 206 | 1.6 | 4.8 | 0.00 | 0.03 | 0.00 | 82 | 1012.5 |
| 20260902091546 | 28 | 202 | 1.6 | 4.8 | 0.00 | 0.03 | 0.00 | 81 | 1012.6 |
| 20260902090043 | 28 | 202 | 1.6 | 4.8 | 0.00 | 0.03 | 0.00 | 80 | 1012.7 |
| 20260902084541 | 28 | 202 | 1.6 | 4.8 | 0.00 | 0.03 | 0.00 | 79 | 1012.7 |
| 20260902083046 | 28 | 202 | 1.6 | 6.4 | 0.00 | 0.03 | 0.00 | 79 | 1012.8 |
| 20260902081558 | 28 | 201 | 1.6 | 6.4 | 0.00 | 0.03 | 0.00 | 79 | 1013.0 |
| 20260902080039 | 28 | 201 | 3.2 | 6.4 | 0.00 | 0.03 | 0.00 | 79 | 1013.2 |
| 20260902074533 | 29 | 201 | 1.6 | 6.4 | 0.00 | 0.03 | 0.00 | 78 | 1013.2 |
| 20260902073029 | 29 | 200 | 3.2 | 6.4 | 0.00 | 0.03 | 0.00 | 78 | 1013.2 |
| 20260902071534 | 29 | 200 | 3.2 | 6.4 | 0.00 | 0.03 | 0.00 | 78 | 1013.1 |
| 20260902070022 | 30 | 200 | 3.2 | 9.7 | 0.00 | 0.03 | 0.00 | 77 | 1013.3 |
| 20260902064523 | 30 | 199 | 4.8 | 8.0 | 0.00 | 0.03 | 0.03 | 76 | 1013.4 |
| 20260902063023 | 30 | 200 | 3.2 | 6.4 | 0.00 | 0.03 | 0.03 | 74 | 1013.5 |
| 20260902061521 | 30 | 200 | 1.6 | 6.4 | 0.00 | 0.03 | 0.03 | 73 | 1013.4 |
| 20260902060023 | 30 | 200 | 1.6 | 6.4 | 0.00 | 0.03 | 0.03 | 74 | 1013.4 |
| 20260902054523 | 30 | 200 | 1.6 | 4.8 | 0.00 | 0.03 | 0.03 | 73 | 1013.4 |
| 20260902053020 | 30 | 200 | 1.6 | 6.4 | 0.00 | 0.03 | 0.03 | 73 | 1013.5 |
| 20260902051519 | 30 | 200 | 1.6 | 6.4 | 0.00 | 0.03 | 0.03 | 73 | 1013.7 |
| 20260902050022 | 30 | 200 | 3.2 | 6.4 | 0.00 | 0.03 | 0.03 | 73 | 1013.6 |
| 20260902044535 | 30 | 200 | 1.6 | 6.4 | 0.00 | 0.03 | 0.03 | 73 | 1013.6 |
| 20260902043015 | 30 | 200 | 4.8 | 8.0 | 0.00 | 0.03 | 0.03 | 73 | 1013.5 |
| 20260902041517 | 30 | 199 | 3.2 | 8.0 | 0.00 | 0.03 | 0.03 | 73 | 1013.4 |
| 20260902040013 | 30 | 192 | 3.2 | 8.0 | 0.00 | 0.03 | 0.03 | 73 | 1013.3 |
| 20260902034511 | 30 | 190 | 1.6 | 8.0 | 0.00 | 0.03 | 0.03 | 73 | 1013.1 |
| 20260902033010 | 30 | 190 | 3.2 | 9.7 | 0.00 | 0.03 | 0.03 | 73 | 1012.8 |
| 20260902031517 | 30 | 193 | 4.8 | 11.3 | 0.00 | 0.03 | 0.03 | 72 | 1012.4 |
| 20260902030009 | 30 | 200 | 3.2 | 11.3 | 0.00 | 0.03 | 0.03 | 72 | 1012.2 |
| 20260902024508 | 30 | 190 | 6.4 | 11.3 | 0.00 | 0.03 | 0.03 | 72 | 1012.0 |
| 20260902023008 | 30 | 184 | 6.4 | 16.1 | 0.00 | 0.03 | 0.03 | 72 | 1011.6 |
| 20260902021510 | 31 | 188 | 4.8 | 16.1 | 0.00 | 0.03 | 0.03 | 71 | 1011.3 |
| 20260902020009 | 31 | 164 | 8.0 | 16.1 | 0.00 | 0.03 | 0.03 | 70 | 1011.2 |
| 20260902014521 | 31 | 182 | 4.8 | 16.1 | 0.00 | 0.03 | 0.03 | 68 | 1011.3 |
| 20260902013004 | 31 | 185 | 8.0 | 12.9 | 0.00 | 0.03 | 0.03 | 66 | 1011.1 |
| 20260902011505 | 32 | 158 | 6.4 | 19.3 | 0.00 | 0.03 | 0.03 | 64 | 1011.1 |
| 20260902010005 | 32 | 156 | 8.0 | 16.1 | 0.00 | 0.03 | 0.03 | 60 | 1010.9 |
| 20260902004502 | 32 | 193 | 4.8 | 11.3 | 0.00 | 0.03 | 0.03 | 59 | 1010.8 |
| 20260902003005 | 32 | 193 | 6.4 | 19.3 | 0.00 | 0.03 | 0.03 | 60 | 1010.6 |
| 20260902001502 | 33 | 154 | 9.7 | 19.3 | 0.00 | 0.03 | 0.03 | 58 | 1010.4 |
| 20260902000101 | 33 | 132 | 8.0 | 19.3 | 0.00 | 0.03 | 0.03 | 58 | 1010.3 |
| 20260901234501 | 33 | 138 | 11.3 | 19.3 | 0.00 | 0.03 | 0.03 | 57 | 1010.3 |
| 20260901233104 | 34 | 161 | 9.7 | 22.5 | 0.00 | 0.03 | 0.03 | 56 | 1010.1 |
| 20260901231602 | 35 | 164 | 11.3 | 22.5 | 0.00 | 0.03 | 0.03 | 56 | 1010.0 |
| 20260901224557 | 34 | 146 | 11.3 | 20.9 | 0.00 | 0.03 | 0.03 | 55 | 1009.9 |
| 20260901223105 | 35 | 138 | 9.7 | 20.9 | 0.00 | 0.03 | 0.03 | 57 | 1010.0 |
| 20260901221612 | 35 | 140 | 11.3 | 20.9 | 0.00 | 0.03 | 0.03 | 58 | 1010.1 |
| 20260901220053 | 35 | 176 | 11.3 | 25.7 | 0.00 | 0.03 | 0.03 | 59 | 1010.1 |
| 20260901214551 | 35 | 150 | 11.3 | 25.7 | 0.00 | 0.18 | 0.03 | 58 | 1010.2 |
| 20260901213102 | 35 | 173 | 12.9 | 25.7 | 0.00 | 0.18 | 0.03 | 57 | 1010.4 |
| 20260901211548 | 35 | 161 | 9.7 | 25.7 | 0.00 | 0.18 | 0.03 | 59 | 1010.6 |
| 20260901210047 | 35 | 182 | 12.9 | 17.7 | 0.00 | 0.18 | 0.03 | 58 | 1010.7 |
| 20260901204547 | 35 | 156 | 11.3 | 20.9 | 0.00 | 0.61 | 0.03 | 61 | 1010.9 |
| 20260901203055 | 34 | 173 | 11.3 | 24.1 | 0.00 | 0.61 | 0.03 | 61 | 1011.1 |
| 20260901201547 | 35 | 146 | 12.9 | 24.1 | 0.00 | 0.61 | 0.03 | 62 | 1011.3 |
| 20260901200036 | 34 | 150 | 6.4 | 24.1 | 0.00 | 0.61 | 0.03 | 62 | 1011.4 |
| 20260901194533 | 34 | 146 | 9.7 | 22.5 | 0.00 | 0.61 | 0.03 | 62 | 1011.5 |
| 20260901193032 | 34 | 129 | 9.7 | 22.5 | 0.00 | 0.61 | 0.03 | 63 | 1011.8 |